This is the latest recevied weather packets stored in our database for station/object AC5JC-1. If no packets are shown the sender has not sent any weather packets the latest 10 day(s).
| Time | Temp. | Humidity | Pressure | Rain* | Wind** | Luminosity | Snow |
|---|---|---|---|---|---|---|---|
| 1777608970 | 15° C | 89% | 1016.8 hPa | 0 mm | - | 0 W/m² | - |
| 1777606283 | 15.56° C | 86% | 1016.4 hPa | 0 mm | - | 0 W/m² | - |
| 1777605961 | 15.56° C | 87% | 1016.3 hPa | 0 mm | - | 0 W/m² | - |
| 1777605642 | 15.56° C | 87% | 1016.4 hPa | 0 mm | - | 0 W/m² | - |
| 1777602336 | 15.56° C | 83% | 1015.2 hPa | 0 mm | - | 0 W/m² | - |
| 1777599635 | 16.11° C | 80% | 1015.3 hPa | 0 mm | - | 0 W/m² | - |
| 1777599036 | 16.11° C | 79% | 1014.8 hPa | 0 mm | - | 0 W/m² | - |
| 1777594282 | 16.67° C | 79% | 1015 hPa | 0 mm | - | 7 W/m² | - |
| 1777592474 | 16.67° C | 80% | 1014.1 hPa | 0 mm | - | 34 W/m² | - |
| 1777591836 | 16.67° C | 78% | 1014.4 hPa | 0 mm | - | 12 W/m² | - |
| 1777590682 | 16.67° C | 80% | 1013.9 hPa | 0 mm | - | 39 W/m² | - |
| 1777590056 | 16.67° C | 80% | 1013.8 hPa | 0 mm | - | 46 W/m² | - |
| 1777589155 | 16.67° C | 81% | 1013.6 hPa | 0 mm | - | 52 W/m² | - |
| 1777588234 | 17.22° C | 80% | 1013.7 hPa | 0 mm | - | 74 W/m² | - |
| 1777586762 | 16.67° C | 80% | 1014.3 hPa | 0 mm | - | 54 W/m² | - |
| 1777586436 | 16.67° C | 81% | 1014.1 hPa | 0 mm | - | 53 W/m² | - |
| 1777582535 | 17.22° C | 81% | 1014.3 hPa | 0 mm | - | 160 W/m² | - |
| 1777581658 | 16.67° C | 82% | 1014.3 hPa | 0 mm | - | 102 W/m² | - |
| 1777580426 | 16.67° C | 83% | 1014.4 hPa | 0 mm | - | 66 W/m² | - |
| 1777577155 | 16.67° C | 86% | 1014.6 hPa | 0 mm | - | 60 W/m² | - |
| 1777576835 | 16.67° C | 86% | 1014.3 hPa | 0 mm | - | 69 W/m² | - |
| 1777576536 | 16.67° C | 86% | 1014.1 hPa | 0 mm | - | 61 W/m² | - |
| 1777575035 | 16.11° C | 88% | 1014.5 hPa | 0 mm | - | 84 W/m² | - |
| 1777571755 | 16.11° C | 92% | 1014.7 hPa | 0 mm | - | 56 W/m² | - |
| 1777569370 | 15.56° C | 94% | 1016.3 hPa | 0 mm | - | 35 W/m² | - |
* Rain latest hour (hover to see other rain measurements)
** Current wind speed in m/s (hover to see current wind gust speed)